Wind_Speed
49 49 48 48 49 49 48 47 47 46 46 46 45 45 43 41 40 39 37 36 34 31 30 28 27 28 29 29 28 27 25 25 24 23 23 24 24 26 27 28 30 32 33 34 36 38 41 42 42 41 39 36 35 34 34 35 35 34 35 37 40 42 42
49 49 49 49 50 49 48 47 47 45 44 44 43 42 41 40 39 38 37 35 33 32 30 29 27 27 28 28 28 27 26 25 24 23 23 23 23 24 25 26 26 27 27 27 29 30 33 36 39 42 42 42 41 38 37 37 37 37 37 38 39 41 42
47 46 46 46 46 46 46 46 45 44 43 41 40 39 39 39 39 38 37 35 33 32 30 29 28 27 27 26 26 26 26 25 24 24 23 23 24 24 24 23 22 24 25 25 25 26 27 29 32 35 37 39 40 39 38 39 39 40 40 40 39 40 41
44 43 42 41 40 40 40 40 41 41 40 40 39 39 39 39 39 38 37 35 33 31 29 28 27 27 26 25 24 25 25 26 25 25 24 24 24 24 25 23 22 22 23 23 24 24 25 27 29 32 34 36 38 38 39 39 39 40 41 41 40 40 40
40 38 37 36 35 33 33 35 36 37 37 38 39 39 40 40 39 38 37 36 34 31 28 27 27 27 27 25 24 24 24 25 26 26 26 25 25 25 26 25 23 23 22 23 23 24 25 27 29 32 35 36 38 39 39 38 37 38 39 40 41 41 40
38 37 37 36 34 32 32 33 35 35 36 36 37 39 40 41 40 39 38 37 34 31 29 28 28 28 28 27 26 25 25 25 25 26 27 27 27 26 27 26 25 24 23 23 23 24 25 26 28 33 37 38 38 39 40 40 39 38 38 39 40 41 40
40 39 39 39 38 36 34 34 35 35 35 35 36 37 39 40 40 40 39 38 36 34 32 31 30 28 27 27 26 26 26 26 26 27 28 28 28 28 28 28 27 26 25 24 23 24 25 26 28 31 37 41 40 39 40 41 42 41 40 40 40 41 41
41 42 42 42 42 41 40 39 38 37 37 37 37 37 38 38 39 40 40 40 39 38 37 35 34 31 30 29 28 28 28 28 28 28 28 29 30 30 30 29 28 28 27 26 25 25 25 26 28 30 35 41 44 42 41 41 43 44 43 42 43 43 44
42 43 43 44 45 46 45 44 43 42 41 40 39 39 39 39 39 40 41 42 42 42 42 41 39 38 36 34 34 33 33 32 31 31 31 31 32 32 32 32 30 29 29 28 27 26 26 27 28 29 32 37 43 46 45 43 43 44 45 45 45 46 46
46 46 46 47 47 47 49 49 47 46 45 44 43 41 41 41 40 40 42 44 45 46 46 45 44 43 42 41 40 39 39 37 35 33 33 34 34 34 34 34 33 32 31 30 29 28 27 27 28 29 31 33 38 43 46 47 45 45 46 47 47 48 48
48 50 51 53 51 50 51 51 50 49 48 47 47 45 43 42 42 42 43 44 46 48 49 49 48 47 46 46 46 45 45 43 40 37 34 35 35 36 36 36 36 36 35 33 32 31 30 30 29 30 31 32 34 38 42 46 48 48 47 47 49 50 50
48 50 52 54 54 52 53 53 50 50 51 52 52 51 48 45 43 43 43 45 46 47 49 50 51 51 50 50 50 50 49 48 46 42 38 37 36 36 37 37 38 38 38 37 36 35 34 33 32 32 32 33 33 35 38 42 46 48 49 49 49 50 52
49 48 50 53 53 53 54 54 53 52 53 54 54 54 52 49 46 44 44 45 46 47 48 49 51 52 52 53 53 53 52 51 49 47 44 42 40 39 38 38 39 39 40 40 40 39 38 36 36 35 35 35 34 35 36 38 42 45 48 49 49 49 51
52 51 53 54 53 51 51 52 52 52 52 53 53 54 53 52 50 49 48 48 48 49 50 51 51 52 53 53 54 54 54 54 53 51 49 47 45 43 41 40 40 41 41 41 41 41 41 41 40 39 39 38 37 37 36 37 39 42 44 47 49 50 50
58 57 56 55 52 50 49 50 51 52 53 52 52 53 54 54 54 54 54 54 54 54 54 55 55 54 54 54 55 55 55 55 54 53 52 50 47 45 44 43 42 42 42 42 42 42 43 43 43 43 42 42 41 40 40 39 39 41 42 45 47 49 50
61 60 58 55 54 53 52 53 54 55 55 54 54 54 55 56 57 57 58 59 59 58 58 57 57 56 56 56 56 57 56 55 54 53 52 50 48 46 45 44 44 43 43 42 43 44 44 44 45 45 45 45 45 45 44 43 42 42 43 44 45 47 49
59 59 59 59 58 58 57 57 58 58 57 55 55 56 57 57 57 58 60 61 61 60 58 58 57 57 57 58 58 58 57 56 52 48 46 45 45 45 45 45 45 45 44 44 44 45 46 46 45 46 46 47 47 47 47 47 46 46 45 45 46 47 48
56 57 58 59 60 60 59 57 57 56 55 54 54 55 55 55 54 55 57 59 59 58 57 57 57 57 58 59 59 58 56 52 47 40 38 38 39 41 43 45 46 47 48 47 46 45 47 48 47 47 47 47 47 48 49 49 50 50 50 49 49 48 48
55 55 56 57 57 57 55 54 54 53 53 54 54 55 54 53 52 53 55 56 57 57 57 59 59 58 58 55 50 47 44 42 39 36 37 38 39 40 41 42 45 47 49 49 49 48 48 48 49 48 48 48 48 49 50 51 52 52 52 53 53 52 52
55 55 55 55 55 55 54 53 52 52 52 53 54 54 54 52 51 53 55 56 57 58 58 59 59 59 56 48 39 35 34 36 38 41 44 44 43 43 44 44 45 46 48 49 50 51 51 51 51 50 50 50 50 51 51 52 53 54 55 55 55 56 55
56 55 55 54 54 54 53 52 52 52 52 51 51 51 53 53 53 55 57 57 57 56 55 54 54 54 54 50 44 42 41 43 47 49 49 48 47 47 47 46 46 46 46 48 49 51 52 53 54 54 54 55 55 55 56 56 57 57 57 57 58 58 58
57 56 56 55 55 55 54 53 53 52 52 51 50 50 51 53 56 58 57 56 56 54 51 50 49 50 53 55 54 52 52 52 52 52 51 50 50 50 48 48 48 47 47 48 49 50 52 53 54 55 57 58 58 59 59 59 60 60 60 60 60 60 60
58 58 58 58 58 58 57 57 55 55 54 53 54 54 54 56 59 60 58 57 56 54 53 51 49 50 53 58 59 59 59 58 57 57 55 54 53 52 51 50 50 50 50 50 50 51 52 53 54 55 56 57 57 58 59 60 61 62 63 63 63 63 63
59 60 61 61 61 61 60 60 59 58 58 57 58 58 59 59 60 61 61 60 59 58 57 56 54 53 55 59 62 63 63 63 63 62 61 59 57 56 54 52 52 52 53 53 53 53 53 53 54 55 55 55 56 57 58 59 60 62 64 65 65 65 65
61 62 62 62 62 62 62 62 61 61 61 61 61 61 61 61 62 62 63 63 62 62 61 61 60 59 59 61 64 66 66 66 67 67 66 65 64 62 59 57 55 53 53 53 54 55 55 55 55 56 55 55 55 57 58 59 60 62 64 65 66 66 67
64 64 64 64 63 63 63 63 63 62 63 63 63 63 62 61 62 63 64 65 65 65 65 65 64 64 65 66 68 69 70 70 70 70 69 69 68 67 64 61 59 57 55 53 53 54 55 55 56 57 57 57 57 58 58 59 61 64 64 64 65 68 69
66 66 66 65 65 64 63 63 64 64 65 65 65 65 65 64 64 65 67 67 68 69 69 69 69 70 71 72 72 72 72 72 72 71 71 70 69 68 66 64 62 60 59 57 55 55 55 55 56 56 57 58 59 60 60 61 63 65 64 63 65 68 70
66 66 66 67 67 66 66 65 65 65 66 66 67 67 67 68 68 68 69 70 71 72 72 73 73 73 73 73 73 72 72 72 72 72 72 71 70 68 67 65 64 62 62 61 60 59 58 57 57 57 58 58 59 60 62 64 66 67 66 65 66 68 70
63 64 64 65 66 67 67 67 67 67 67 67 68 69 69 70 70 71 71 72 73 74 74 74 74 73 72 71 71 71 71 71 72 72 72 72 71 69 68 67 65 64 64 63 63 63 62 62 61 61 61 60 61 62 63 65 67 68 68 69 70 70 71
62 62 62 63 65 66 67 67 67 67 68 69 70 71 72 72 72 73 73 74 75 75 75 74 73 72 71 70 69 69 70 70 71 71 71 71 70 69 68 67 67 66 66 66 66 66 66 66 65 65 65 65 65 65 66 67 68 69 70 72 73 73 73
59 59 60 61 63 64 65 66 67 68 69 70 71 72 73 73 73 74 74 75 75 75 74 73 72 70 69 68 68 68 69 70 70 70 71 70 70 69 69 68 68 68 68 68 68 68 68 69 69 69 70 69 69 69 69 69 70 71 72 73 74 75 76
59 58 58 59 60 62 63 63 65 66 68 69 71 72 72 72 72 73 73 73 73 73 72 70 69 68 67 67 67 68 68 69 69 69 69 69 70 70 70 70 69 70 70 70 70 70 71 71 72 73 74 74 74 74 74 74 74 74 74 74 75 77 79
60 60 59 59 60 60 61 61 62 64 65 66 68 69 69 69 69 70 70 70 70 70 69 68 67 67 67 67 67 67 67 67 67 68 68 68 69 70 70 71 72 72 72 72 73 73 73 74 75 76 77 77 77 77 78 78 78 77 77 77 77 78 79
64 63 62 62 62 62 62 62 62 62 63 65 66 67 67 67 67 68 68 68 68 68 68 67 67 67 67 66 66 66 66 66 66 67 67 68 69 70 72 73 73 74 74 75 76 76 77 77 78 79 80 80 80 80 81 81 81 81 81 80 79 79 78
69 68 66 66 66 66 65 65 64 64 63 64 66 66 66 67 67 67 67 68 68 68 68 68 68 67 67 67 66 66 65 66 66 67 68 69 70 72 73 75 75 76 77 78 78 79 80 80 81 81 81 82 82 83 83 83 84 83 82 81 80 80 79
75 74 72 71 70 70 69 68 68 68 67 66 67 68 68 68 68 68 68 68 68 69 69 69 69 69 69 68 67 67 67 67 68 68 70 71 72 74 75 77 78 78 79 80 80 80 81 81 82 83 83 83 84 84 84 84 84 83 83 82 81 80 80
79 78 77 76 74 73 73 72 72 72 71 70 70 70 71 70 70 70 70 70 70 70 71 71 71 71 71 70 70 69 69 70 70 71 72 74 75 76 78 79 80 80 81 81 81 81 82 82 83 84 84 84 84 84 83 82 82 81 81 81 80 80 80
Wind_Direction
268 268 268 269 271 273 275 276 278 280 281 282 283 283 283 283 282 280 278 277 276 277 279 283 286 288 287 284 281 279 280 281 283 282 280 276 272 270 267 264 262 260 259 258 257 256 253 249 247 248 250 251 250 250 252 254 256 258 260 258 253 251 250
271 271 271 272 273 275 276 276 276 277 278 278 279 280 279 279 278 277 276 276 276 277 278 281 283 286 286 283 279 278 279 280 282 283 281 277 274 271 268 266 265 264 261 258 256 256 254 251 247 247 248 249 250 249 249 249 251 254 255 253 251 251 250
274 274 274 274 275 275 276 276 276 276 275 275 274 273 272 273 274 275 275 276 276 277 279 280 281 283 284 283 279 276 277 279 280 281 281 279 276 273 270 268 267 264 261 258 256 255 254 252 247 243 243 246 248 247 245 246 248 250 250 250 251 253 253
275 275 275 274 274 275 276 276 276 276 274 271 269 267 266 267 270 272 273 274 275 277 278 279 280 282 283 284 282 279 277 277 278 280 280 280 278 275 273 270 266 264 264 261 258 255 253 251 246 239 236 240 243 244 244 244 245 246 247 247 248 251 253
274 274 273 271 271 271 273 275 276 275 274 272 269 266 263 263 265 268 270 271 272 274 277 279 281 283 283 283 284 284 282 279 278 278 279 280 279 276 274 272 268 266 265 264 260 257 254 251 246 237 232 235 240 241 244 245 244 244 246 247 246 246 249
275 274 273 271 269 268 270 272 273 272 273 273 271 267 264 263 263 264 266 267 268 270 273 276 279 282 283 282 282 284 284 283 280 277 276 276 277 276 274 271 269 266 265 264 262 260 256 252 247 239 232 233 237 239 242 245 245 245 246 248 247 246 246
276 276 275 273 272 270 269 272 273 272 272 273 272 270 267 265 263 262 262 262 264 266 269 271 274 277 280 281 282 284 284 284 282 279 276 274 274 274 273 271 269 267 265 264 263 261 258 254 250 242 234 232 234 237 239 242 244 246 246 247 248 248 248
275 274 273 273 272 272 270 271 272 272 274 275 275 274 272 270 266 263 261 261 262 264 266 267 269 270 273 276 279 282 284 284 283 281 279 276 274 272 271 271 270 268 265 263 262 262 260 257 253 248 240 235 234 236 238 239 242 244 246 247 248 249 249
275 274 273 272 271 271 271 270 270 271 273 276 277 277 276 274 271 267 264 262 262 263 264 266 267 267 269 272 275 279 282 284 283 281 279 278 275 273 271 270 269 269 267 264 262 262 261 260 257 254 249 243 239 238 238 239 241 242 244 246 248 250 251
274 274 274 274 273 272 270 268 268 269 270 273 275 277 277 275 273 271 268 265 264 263 264 265 266 267 268 270 273 277 280 282 282 280 280 279 277 275 272 269 268 268 267 266 264 262 261 260 259 257 254 250 246 243 242 241 241 242 243 244 246 249 252
271 272 274 274 274 272 271 268 267 267 268 270 271 273 275 273 271 269 268 266 265 264 264 265 266 268 269 270 272 274 278 280 280 278 278 278 278 277 275 272 269 267 266 265 264 264 263 261 260 259 257 254 251 248 245 244 243 243 243 244 244 246 249
270 270 270 271 271 270 270 269 267 266 267 268 270 271 272 272 270 267 266 266 266 266 266 267 268 269 270 271 272 273 275 278 278 276 277 277 276 276 275 274 272 269 267 265 264 264 263 263 262 261 259 258 255 253 250 247 246 245 245 246 245 244 245
266 265 265 268 270 270 271 271 270 268 268 268 269 270 271 271 268 266 266 267 267 268 268 268 269 270 271 272 273 273 274 276 276 274 275 276 275 273 272 273 273 271 269 267 265 263 262 262 262 262 261 260 258 256 254 251 249 248 247 247 248 247 245
261 262 263 265 268 272 273 273 273 272 270 269 270 271 272 271 268 266 267 269 270 270 269 269 269 269 271 271 272 273 274 275 275 274 273 273 272 270 269 270 271 270 269 267 266 264 263 262 262 261 261 260 259 257 255 254 252 251 250 248 249 249 248
260 263 264 264 264 267 269 271 272 272 271 271 270 270 271 272 271 270 271 272 274 273 271 270 270 271 272 273 274 274 275 275 275 274 272 271 270 267 266 267 269 269 268 267 266 265 263 262 261 261 261 261 260 259 257 255 253 251 251 250 249 249 249
261 263 263 262 261 262 264 267 269 270 270 270 270 269 269 270 271 272 273 274 274 273 272 272 272 273 274 274 274 274 274 275 275 274 273 270 268 265 265 266 267 267 266 267 267 266 264 262 261 260 260 260 260 260 259 258 256 253 251 250 249 249 249
262 262 261 261 261 262 264 266 268 269 270 271 270 270 270 270 271 272 273 272 272 272 272 272 272 273 274 274 274 274 273 272 273 274 274 272 269 266 265 265 265 265 265 267 268 266 264 262 261 260 259 259 259 260 260 260 259 258 256 254 252 251 250
262 261 261 260 262 264 265 267 268 269 270 271 271 270 270 271 272 273 272 272 272 272 272 272 271 271 272 274 274 273 271 268 267 271 276 276 274 271 268 267 266 265 265 266 267 266 263 261 260 260 260 259 259 259 259 259 259 259 259 258 256 254 253
260 260 260 260 261 263 265 266 267 268 269 270 271 272 272 272 272 272 271 272 273 273 273 273 272 272 272 273 274 272 265 258 259 269 276 278 278 274 271 270 270 269 267 265 265 264 263 260 259 259 259 259 260 260 259 258 258 258 258 258 258 257 256
260 260 260 261 262 263 264 265 267 268 269 269 270 272 272 272 272 270 269 270 272 274 274 275 276 277 276 275 274 270 260 254 262 274 278 278 278 275 272 271 273 273 271 268 265 263 261 260 259 258 258 259 260 261 262 260 258 257 257 256 256 256 256
260 260 260 261 261 262 263 264 266 267 267 268 270 271 273 273 271 268 269 271 273 274 274 274 276 278 278 276 275 273 270 270 274 280 281 280 280 278 275 275 276 275 274 273 270 267 264 262 260 260 260 260 261 262 263 262 260 258 257 256 255 255 255
260 260 259 259 260 260 261 262 263 264 265 265 267 268 269 270 269 269 270 271 271 271 270 271 273 273 274 276 278 278 280 281 282 283 284 283 282 281 279 279 279 278 277 276 274 272 269 266 264 263 262 262 263 263 263 262 260 258 257 256 255 255 254
259 259 259 258 258 259 259 260 261 261 261 262 264 264 264 265 266 268 269 269 268 267 266 267 268 268 269 274 277 280 282 284 285 286 285 284 283 282 281 281 281 281 279 277 275 273 272 271 269 267 265 264 264 264 263 261 259 257 257 256 256 255 255
258 259 259 258 258 258 258 259 259 259 259 259 261 263 263 262 263 265 266 266 265 265 265 265 265 265 266 269 273 277 280 282 284 285 285 285 284 283 281 280 280 279 278 277 276 274 272 271 270 269 268 267 266 265 264 262 259 257 256 256 256 255 255
257 257 258 258 259 259 259 259 259 259 258 258 260 262 263 262 262 262 262 263 263 264 264 264 264 264 265 266 269 273 276 279 281 282 282 282 283 282 282 280 278 277 276 275 274 274 273 272 271 270 269 267 266 266 265 265 263 260 257 256 256 256 255
257 257 257 258 258 258 259 260 260 259 259 259 259 260 262 262 261 260 260 260 261 262 263 263 264 265 267 268 269 271 273 276 278 278 278 279 279 280 280 280 279 278 277 274 272 271 271 271 271 271 270 269 267 266 265 265 264 263 261 259 258 257 256
258 257 257 257 257 257 257 258 258 259 259 259 259 260 261 261 260 260 259 260 260 261 262 262 263 265 268 270 271 271 272 274 275 276 276 276 277 278 278 279 279 279 278 277 275 272 271 269 269 269 269 269 268 268 267 266 264 263 263 262 261 261 259
260 259 258 258 257 257 256 256 256 257 258 259 260 260 260 261 261 260 260 261 262 263 263 264 265 266 268 269 270 271 272 274 274 275 276 276 277 277 278 278 277 277 277 277 277 276 274 272 270 269 267 267 266 266 266 266 266 266 265 263 262 261 261
262 261 261 260 259 259 258 257 257 258 259 260 260 261 261 261 262 262 263 263 264 265 266 267 267 268 269 270 271 271 272 272 273 273 274 275 276 276 277 277 277 277 277 277 277 277 276 275 274 273 271 269 268 266 264 264 264 266 266 265 263 262 261
262 262 261 261 261 260 260 260 259 259 260 260 260 261 261 261 262 262 263 264 264 265 266 267 268 268 269 270 270 270 271 271 271 271 272 272 273 274 275 275 276 277 277 277 277 277 277 277 276 276 275 273 272 270 268 267 266 265 264 264 265 264 263
260 260 259 259 259 259 259 258 259 259 259 259 260 260 261 261 262 262 263 264 264 265 266 267 267 268 268 268 268 269 269 269 269 269 270 271 272 272 273 274 275 276 276 277 277 277 277 277 277 277 277 276 275 273 272 270 269 267 266 265 264 265 264
262 260 259 258 257 257 256 256 256 257 257 258 259 260 261 261 262 263 263 264 265 265 266 267 267 267 267 267 267 267 267 268 268 268 268 269 270 271 272 274 275 275 276 276 276 277 277 278 278 278 278 278 277 277 275 274 272 270 269 267 266 265 264
262 262 261 260 259 258 257 257 256 257 257 258 259 260 261 261 262 263 263 264 265 266 266 267 267 267 267 267 267 267 267 267 267 267 268 268 269 270 271 273 275 276 276 277 277 277 277 278 278 278 278 278 277 277 277 276 275 274 272 270 268 267 265
262 261 261 261 261 260 259 259 258 258 259 260 261 261 262 263 263 264 264 265 266 267 267 268 268 267 267 267 266 266 266 266 266 267 267 268 268 269 271 272 274 275 276 276 277 278 278 278 278 278 278 278 278 277 277 276 276 275 274 273 271 270 269
265 264 263 262 261 261 261 260 260 260 260 260 261 262 263 264 264 265 266 266 267 268 268 268 268 268 267 267 266 266 266 266 267 267 267 268 268 269 270 272 273 274 275 276 277 277 278 278 279 279 279 278 278 277 277 276 276 276 275 275 274 273 272
266 266 265 264 263 263 262 262 261 261 260 260 260 261 262 262 263 264 265 265 266 266 267 267 267 267 267 267 267 268 268 268 268 268 268 269 269 270 271 272 273 274 275 276 276 277 278 278 278 278 278 277 277 276 276 276 276 277 277 276 276 275 274
264 265 265 264 264 263 263 262 262 262 261 260 260 260 261 261 261 262 262 263 263 264 264 265 266 266 267 268 268 268 269 269 269 269 269 270 270 271 272 273 274 275 276 276 277 277 277 277 277 277 277 277 277 277 277 277 277 277 276 276 276 275 275
Height
10603 10604 10605 10604 10604 10605 10607 10607 10607 10607 10606 10606 10606 10607 10608 10609 10610 10610 10611 10611 10612 10612 10612 10612 10612 10611 10611 10611 10610 10610 10611 10611 10611 10611 10611 10611 10611 10611 10611 10611 10611 10612 10614 10615 10615 10616 10618 10621 10622 10623 10625 10626 10627 10629 10629 10630 10631 10632 10634 10635 10636 10637 10639
10598 10599 10600 10600 10599 10600 10601 10601 10601 10602 10602 10602 10602 10601 10602 10603 10604 10605 10605 10606 10606 10607 10607 10607 10607 10607 10607 10607 10606 10606 10606 10607 10607 10608 10608 10608 10608 10608 10607 10607 10608 10608 10609 10610 10611 10611 10612 10614 10616 10617 10619 10620 10622 10624 10624 10625 10626 10628 10630 10631 10632 10633 10635
10592 10594 10595 10595 10595 10595 10595 10594 10594 10595 10596 10597 10597 10597 10597 10598 10598 10599 10600 10601 10601 10602 10602 10603 10603 10603 10603 10603 10603 10602 10602 10603 10603 10604 10604 10604 10604 10604 10604 10604 10604 10604 10605 10606 10607 10607 10608 10609 10610 10612 10613 10614 10616 10618 10619 10620 10622 10623 10625 10627 10628 10630 10631
10585 10588 10589 10589 10590 10590 10589 10588 10588 10589 10590 10591 10592 10593 10593 10594 10594 10595 10595 10596 10596 10597 10597 10598 10598 10598 10598 10598 10599 10599 10599 10599 10599 10600 10600 10600 10600 10600 10600 10601 10601 10601 10601 10602 10603 10603 10604 10604 10605 10606 10608 10609 10610 10612 10613 10615 10617 10619 10621 10623 10624 10626 10628
10579 10581 10583 10583 10584 10585 10585 10584 10583 10583 10584 10585 10586 10588 10589 10590 10591 10591 10591 10591 10592 10592 10593 10593 10593 10593 10593 10594 10594 10594 10594 10595 10596 10596 10597 10597 10597 10597 10597 10597 10598 10598 10598 10598 10599 10599 10600 10600 10601 10602 10604 10604 10605 10606 10608 10610 10612 10615 10616 10618 10619 10622 10624
10574 10576 10577 10578 10579 10580 10580 10579 10579 10579 10580 10580 10581 10582 10583 10584 10586 10587 10588 10588 10588 10588 10588 10588 10588 10588 10588 10589 10590 10590 10590 10591 10592 10592 10593 10593 10594 10594 10594 10594 10594 10594 10595 10595 10595 10595 10596 10596 10597 10598 10600 10600 10601 10602 10604 10606 10608 10610 10612 10613 10615 10617 10619
10570 10571 10571 10572 10573 10575 10575 10575 10575 10575 10576 10576 10577 10577 10579 10580 10581 10582 10583 10583 10584 10584 10584 10584 10584 10584 10584 10585 10585 10586 10586 10587 10587 10588 10589 10590 10590 10591 10591 10591 10591 10591 10591 10592 10592 10592 10592 10592 10593 10594 10595 10596 10597 10598 10600 10602 10603 10605 10607 10608 10610 10611 10613
10565 10566 10566 10567 10568 10568 10570 10570 10570 10570 10571 10571 10572 10573 10574 10575 10576 10577 10577 10578 10578 10579 10579 10579 10579 10580 10580 10581 10581 10582 10582 10582 10583 10583 10584 10585 10586 10587 10587 10587 10588 10588 10588 10588 10589 10589 10589 10589 10589 10590 10591 10591 10592 10594 10596 10598 10599 10601 10602 10604 10605 10606 10607
10560 10561 10561 10561 10562 10562 10563 10564 10564 10565 10565 10566 10567 10568 10569 10570 10571 10571 10572 10572 10572 10573 10573 10574 10574 10575 10575 10576 10577 10577 10578 10578 10578 10578 10579 10580 10580 10581 10582 10583 10583 10584 10584 10585 10585 10585 10585 10585 10586 10586 10587 10587 10588 10589 10591 10593 10595 10596 10598 10599 10600 10601 10602
10556 10556 10555 10555 10556 10557 10556 10557 10559 10559 10560 10561 10562 10563 10564 10564 10565 10565 10565 10565 10566 10566 10567 10568 10569 10569 10570 10571 10571 10572 10573 10573 10574 10574 10574 10574 10575 10576 10576 10577 10578 10579 10579 10580 10580 10581 10581 10582 10582 10582 10583 10583 10584 10585 10587 10589 10590 10592 10593 10595 10596 10597 10598
10552 10552 10550 10548 10549 10550 10549 10551 10554 10554 10555 10556 10556 10558 10558 10558 10559 10558 10558 10558 10559 10559 10560 10561 10563 10564 10565 10566 10566 10567 10567 10568 10569 10569 10569 10569 10570 10570 10571 10572 10572 10573 10574 10574 10575 10576 10577 10578 10578 10578 10578 10579 10580 10580 10581 10583 10585 10587 10588 10590 10591 10592 10593
10546 10547 10545 10542 10542 10543 10542 10544 10548 10549 10549 10550 10551 10552 10553 10552 10552 10552 10552 10552 10552 10553 10554 10555 10556 10557 10558 10559 10560 10561 10562 10563 10563 10564 10564 10564 10565 10565 10566 10566 10567 10568 10568 10569 10570 10571 10572 10573 10573 10574 10574 10574 10575 10576 10577 10578 10579 10581 10583 10584 10585 10586 10588
10540 10540 10539 10537 10536 10537 10536 10537 10540 10543 10543 10544 10544 10545 10546 10546 10546 10545 10545 10546 10546 10548 10549 10550 10550 10551 10552 10553 10554 10555 10556 10557 10557 10558 10558 10559 10559 10560 10560 10561 10562 10562 10563 10564 10565 10566 10567 10567 10568 10569 10569 10570 10571 10571 10572 10573 10574 10575 10577 10578 10579 10580 10582
10534 10533 10532 10533 10532 10532 10531 10531 10532 10534 10536 10538 10539 10539 10539 10540 10540 10539 10539 10540 10541 10542 10543 10543 10544 10545 10546 10547 10547 10548 10549 10550 10550 10551 10552 10552 10553 10554 10554 10555 10556 10557 10557 10558 10559 10560 10561 10562 10563 10563 10564 10565 10566 10566 10567 10568 10569 10570 10571 10572 10573 10574 10575
10528 10527 10527 10528 10528 10528 10527 10526 10526 10527 10528 10531 10533 10532 10532 10532 10532 10532 10533 10534 10535 10536 10536 10537 10538 10539 10540 10541 10541 10541 10542 10543 10543 10544 10545 10545 10546 10547 10548 10549 10550 10551 10551 10552 10553 10555 10555 10556 10557 10558 10559 10559 10560 10561 10562 10562 10563 10564 10564 10565 10567 10568 10569
10522 10522 10521 10521 10522 10522 10522 10522 10522 10521 10522 10525 10526 10525 10525 10525 10525 10525 10525 10526 10527 10528 10529 10531 10532 10533 10534 10534 10534 10534 10535 10536 10537 10537 10538 10538 10539 10540 10541 10542 10544 10544 10545 10546 10547 10548 10549 10550 10551 10552 10552 10553 10554 10555 10556 10557 10558 10558 10558 10559 10560 10561 10562
10514 10515 10515 10514 10514 10515 10517 10517 10516 10515 10517 10518 10518 10517 10517 10517 10518 10518 10517 10517 10519 10521 10523 10525 10526 10527 10527 10526 10526 10527 10527 10529 10530 10531 10532 10532 10533 10534 10535 10536 10537 10538 10539 10540 10541 10542 10542 10543 10544 10545 10546 10547 10548 10548 10550 10551 10552 10552 10553 10553 10554 10554 10555
10507 10507 10508 10507 10507 10508 10509 10509 10509 10509 10510 10510 10509 10508 10509 10510 10511 10510 10509 10508 10510 10513 10516 10517 10519 10520 10519 10518 10518 10518 10519 10522 10524 10526 10526 10527 10528 10528 10529 10530 10530 10531 10532 10533 10533 10534 10535 10535 10536 10538 10539 10539 10541 10542 10543 10544 10544 10545 10546 10547 10547 10548 10548
10500 10501 10501 10501 10501 10501 10502 10502 10502 10503 10504 10502 10500 10500 10501 10504 10505 10503 10501 10501 10502 10505 10506 10507 10509 10510 10511 10512 10512 10511 10512 10515 10518 10519 10520 10521 10522 10522 10523 10523 10523 10523 10524 10525 10525 10526 10526 10527 10529 10530 10531 10532 10533 10534 10535 10536 10537 10537 10538 10539 10540 10540 10541
10493 10494 10494 10494 10494 10494 10494 10495 10496 10497 10497 10495 10495 10494 10495 10497 10498 10495 10494 10494 10496 10497 10498 10498 10499 10499 10501 10505 10507 10506 10508 10511 10512 10513 10514 10515 10515 10515 10516 10516 10516 10516 10516 10517 10517 10518 10519 10520 10521 10523 10524 10524 10525 10526 10527 10528 10529 10529 10530 10531 10531 10532 10533
10486 10487 10487 10487 10487 10487 10488 10489 10490 10490 10490 10490 10490 10489 10489 10490 10489 10487 10487 10489 10489 10490 10491 10491 10491 10490 10491 10495 10499 10501 10503 10505 10506 10507 10507 10508 10508 10507 10508 10509 10509 10509 10509 10509 10509 10510 10511 10512 10514 10515 10516 10516 10518 10519 10520 10520 10521 10521 10522 10522 10523 10524 10525
10479 10480 10480 10480 10480 10480 10481 10482 10483 10483 10483 10484 10484 10484 10483 10482 10479 10479 10482 10483 10483 10484 10484 10484 10485 10485 10483 10484 10488 10492 10494 10496 10497 10498 10499 10500 10500 10499 10500 10501 10501 10502 10502 10503 10502 10502 10502 10503 10505 10506 10507 10508 10509 10510 10511 10511 10512 10513 10513 10513 10514 10515 10517
10472 10472 10472 10473 10473 10473 10474 10475 10476 10476 10477 10478 10477 10477 10477 10476 10473 10473 10476 10477 10477 10477 10478 10478 10479 10479 10478 10477 10479 10482 10484 10486 10488 10489 10490 10491 10492 10492 10492 10493 10493 10494 10494 10495 10495 10494 10494 10495 10496 10497 10497 10499 10500 10501 10501 10502 10503 10504 10504 10504 10505 10507 10508
10465 10464 10464 10465 10466 10466 10467 10468 10469 10469 10470 10471 10471 10470 10469 10470 10469 10469 10469 10470 10470 10471 10471 10473 10474 10474 10473 10473 10472 10473 10475 10477 10479 10480 10481 10482 10483 10483 10484 10486 10487 10487 10486 10487 10487 10487 10487 10488 10488 10488 10489 10491 10491 10491 10491 10492 10493 10494 10494 10495 10497 10498 10499
10457 10457 10457 10457 10458 10459 10459 10460 10461 10462 10463 10464 10464 10463 10462 10462 10463 10463 10463 10463 10463 10464 10465 10466 10468 10469 10470 10469 10468 10468 10469 10470 10471 10472 10473 10474 10475 10475 10476 10477 10478 10479 10480 10480 10479 10479 10479 10480 10480 10480 10482 10483 10483 10483 10482 10483 10484 10483 10484 10486 10488 10488 10489
10449 10449 10449 10450 10451 10451 10452 10452 10453 10454 10455 10456 10456 10455 10454 10454 10454 10455 10455 10455 10456 10457 10458 10459 10461 10462 10463 10464 10464 10464 10464 10464 10465 10465 10466 10466 10467 10467 10467 10468 10469 10469 10471 10472 10473 10472 10472 10472 10472 10472 10473 10474 10474 10475 10475 10475 10474 10472 10474 10477 10478 10478 10478
10439 10439 10440 10441 10442 10443 10444 10444 10445 10446 10446 10447 10448 10448 10447 10446 10446 10446 10447 10447 10448 10449 10450 10452 10453 10455 10455 10456 10457 10457 10458 10457 10457 10457 10458 10458 10458 10458 10459 10459 10460 10460 10461 10462 10464 10464 10465 10465 10465 10465 10465 10465 10465 10466 10467 10466 10464 10463 10466 10469 10469 10468 10467
10428 10429 10429 10430 10431 10433 10434 10435 10436 10436 10437 10438 10438 10439 10438 10438 10437 10438 10438 10439 10440 10441 10442 10443 10444 10446 10447 10448 10449 10449 10449 10449 10449 10448 10447 10448 10448 10448 10449 10450 10451 10452 10452 10452 10453 10454 10455 10456 10456 10457 10457 10457 10457 10457 10457 10455 10453 10454 10457 10459 10459 10458 10457
10416 10417 10418 10419 10420 10421 10423 10424 10426 10427 10428 10428 10428 10428 10428 10428 10429 10430 10430 10430 10430 10431 10432 10433 10434 10436 10438 10439 10440 10441 10441 10440 10440 10439 10438 10438 10438 10439 10439 10440 10441 10442 10442 10443 10443 10444 10444 10445 10446 10446 10447 10448 10448 10448 10447 10446 10445 10446 10447 10447 10447 10447 10448
10407 10408 10409 10409 10409 10409 10411 10413 10415 10417 10418 10418 10418 10418 10418 10419 10420 10421 10421 10421 10421 10422 10423 10424 10426 10427 10429 10430 10431 10432 10432 10431 10431 10430 10430 10429 10430 10430 10430 10431 10431 10432 10432 10432 10433 10433 10434 10434 10435 10435 10436 10437 10437 10437 10437 10437 10437 10437 10436 10435 10436 10436 10437
10399 10400 10400 10400 10400 10401 10402 10404 10406 10407 10407 10407 10407 10407 10408 10409 10410 10412 10412 10412 10413 10414 10415 10416 10417 10419 10421 10422 10423 10423 10423 10422 10421 10421 10421 10421 10421 10421 10422 10422 10422 10422 10422 10422 10422 10423 10423 10423 10423 10424 10424 10425 10425 10426 10427 10427 10426 10426 10425 10425 10425 10425 10425
10389 10390 10390 10391 10391 10392 10393 10395 10396 10397 10397 10397 10397 10397 10398 10400 10401 10401 10402 10402 10403 10404 10406 10407 10408 10410 10411 10412 10413 10413 10413 10412 10412 10412 10412 10412 10412 10412 10412 10413 10413 10413 10413 10412 10412 10413 10413 10413 10412 10412 10412 10412 10412 10413 10414 10413 10413 10413 10413 10414 10414 10413 10412
10379 10380 10380 10381 10382 10383 10385 10386 10387 10388 10388 10388 10388 10388 10389 10390 10391 10391 10391 10392 10393 10394 10395 10397 10398 10400 10401 10402 10403 10403 10403 10403 10403 10403 10403 10403 10404 10404 10404 10403 10403 10403 10403 10402 10402 10403 10403 10403 10402 10401 10400 10401 10401 10401 10400 10399 10400 10400 10400 10400 10399 10399 10399
10369 10370 10371 10371 10372 10373 10375 10377 10378 10379 10379 10379 10379 10380 10381 10381 10381 10381 10382 10382 10383 10384 10385 10386 10387 10389 10390 10391 10392 10393 10393 10393 10394 10394 10395 10395 10395 10395 10395 10395 10394 10393 10393 10392 10392 10392 10392 10391 10390 10389 10389 10389 10389 10388 10387 10387 10386 10386 10385 10385 10385 10386 10386
10356 10358 10360 10361 10362 10362 10364 10366 10368 10369 10370 10370 10370 10371 10372 10372 10372 10372 10373 10373 10374 10374 10375 10375 10376 10377 10378 10380 10381 10382 10384 10384 10385 10386 10386 10386 10387 10386 10386 10385 10385 10384 10383 10383 10382 10382 10381 10380 10379 10378 10377 10377 10376 10375 10374 10373 10372 10372 10372 10372 10373 10373 10372
10344 10346 10348 10349 10351 10351 10353 10355 10357 10358 10360 10360 10361 10361 10362 10363 10363 10364 10365 10365 10365 10365 10366 10366 10366 10366 10367 10369 10371 10373 10374 10375 10376 10376 10376 10377 10377 10376 10376 10375 10375 10374 10374 10373 10373 10372 10371 10369 10368 10366 10365 10364 10363 10362 10361 10360 10360 10360 10360 10360 10360 10359 10358
10333 10334 10335 10337 10339 10340 10342 10343 10345 10346 10348 10350 10351 10351 10352 10353 10354 10355 10355 10356 10356 10356 10356 10357 10357 10358 10358 10360 10362 10363 10365 10365 10366 10366 10366 10366 10366 10365 10365 10364 10364 10363 10363 10362 10362 10361 10360 10358 10356 10354 10352 10351 10351 10350 10350 10350 10350 10349 10348 10347 10347 10346 10345